EW5295 Weather Reports


time (UTC)temp
C
wind
direction
speed
KPH
gust
KPH
rain 1hr
cm
rain 24hr
cm
rain mn
cm
humidity
%
barometer
mb
20260502231601 21 138 0.0 1.6 0.00 0.00 0.00 59 1011.4
20260502223027 19 139 0.0 1.6 0.00 0.00 0.00 67 1012.0
20260502220020 19 132 0.0 3.2 0.00 0.00 0.00 63 1012.5
20260502211503 18 121 0.0 1.6 0.00 0.00 0.00 66 1013.0
20260502210028 17 117 0.0 3.2 0.00 0.00 0.00 69 1013.2
20260502203005 16 122 0.0 4.8 0.00 0.00 0.00 74 1013.6
20260502193051 13 163 0.0 3.2 0.00 0.00 0.00 81 1014.1
20260502191523 12 209 0.0 3.2 0.00 0.00 0.00 86 1014.5
20260502190056 12 129 0.0 0.0 0.00 0.00 0.00 88 1014.9
20260502184540 11 146 0.0 1.6 0.00 0.00 0.00 87 1014.8
20260502184518 11 146 0.0 1.6 0.00 0.00 0.00 86 1014.8
20260502183050 11 146 0.0 0.0 0.00 0.00 0.00 84 1014.7
20260502163109 11 224 0.0 3.2 0.00 0.00 0.00 83 1015.2
20260502151523 10 141 0.0 3.2 0.00 0.00 0.00 87 1014.8
20260502123011 7 153 0.0 0.0 0.00 0.00 0.00 90 1014.8
20260502121549 7 153 0.0 0.0 0.00 0.00 0.00 91 1014.8
20260502121504 7 153 0.0 0.0 0.00 0.00 0.00 91 1014.8
20260502114504 7 153 0.0 0.0 0.00 0.00 0.00 90 1014.9
20260502110018 8 153 0.0 0.0 0.00 0.00 0.00 87 1014.6
20260502103044 8 153 0.0 0.0 0.00 0.00 0.00 85 1014.7
20260502101606 8 153 0.0 1.6 0.00 0.00 0.00 85 1014.7
20260502101535 8 153 0.0 1.6 0.00 0.00 0.00 85 1014.7
20260502071531 11 148 0.0 1.6 0.00 0.00 0.00 76 1015.5
20260502063030 11 193 0.0 3.2 0.00 0.00 0.00 75 1015.6
20260502061527 11 131 0.0 1.6 0.00 0.00 0.00 75 1015.5
20260502060020 12 122 0.0 1.6 0.00 0.00 0.00 74 1015.4
20260502054503 12 136 0.0 0.0 0.00 0.00 0.00 74 1015.3
20260502051602 12 136 0.0 1.6 0.00 0.00 0.00 72 1015.3
20260502050047 13 85 0.0 1.6 0.00 0.00 0.00 71 1015.1
20260502050004 13 168 0.0 1.6 0.00 0.00 0.00 71 1015.1
20260502040011 13 126 0.0 4.8 0.00 0.00 0.00 68 1014.4
20260502034545 14 80 0.0 6.4 0.00 0.00 0.00 68 1014.2
20260502033014 15 133 0.0 1.6 0.00 0.00 0.00 68 1014.0
20260502031600 15 115 0.0 4.8 0.00 0.00 0.00 67 1013.9
20260502031515 15 115 0.0 4.8 0.00 0.00 0.00 67 1013.9
20260502024543 17 84 0.0 1.6 0.00 0.00 0.00 63 1013.5
20260502021557 18 245 0.0 6.4 0.00 0.00 0.00 57 1013.1
20260502011503 22 124 0.0 0.0 0.00 0.00 0.00 50 1012.9
20260502010019 22 179 0.0 1.6 0.00 0.00 0.00 50 1012.9
20260502004509 22 172 0.0 0.0 0.00 0.00 0.00 47 1012.9
20260502003036 22 335 0.0 1.6 0.00 0.00 0.00 50 1012.9
20260502000038 22 335 0.0 1.6 0.00 0.00 0.00 48 1012.9
20260501234509 22 124 0.0 1.6 0.00 0.00 0.00 46 1013.0
20260501233039 22 168 0.0 0.0 0.00 0.00 0.00 46 1013.0